Retour au catalogue

CZ-6A DEB

ActifPO
NORAD 61288·DEBRIS·🇨🇳 China

Lancé Aug 6, 2024 depuis Taiyuan Satellite Launch Center

Loading…

Prochains Passages (prochaines 24 heures)

TLE

FraisSource: Space-Track

Époque: Sep 14, 2026, 10:50 UTC

1 61288U 24140SZ  26257.45148734  .00002648  00000-0  87057-3 0  9994
2 61288  89.0161 264.4380 0011423  94.7886 265.4619 14.38000659106468

Suivez CZ-6A DEB en temps réel avec AllMySat

Download on the App Store